1386288030853,20.8184
1386288090853,20.8485
1386288150853,20.8892
1386288210853,20.8622
1386288270853,20.7924
1386288330853,20.8213
1386288390853,20.9113
1386288450853,20.8287
1386288510853,20.8540
1386288570853,20.7921
1386288630853,20.8339
1386288690853,20.8923
1386288750853,20.9030
1386288810853,20.8506
1386288870853,20.8229
1386288930853,20.7528
1386288990853,20.8529
1386289050853,20.7618
1386289110853,20.7446
1386289170853,20.7383
1386289230853,20.6911
1386289290853,20.7674
1386289350853,20.7127
1386289410853,20.7250
1386289470853,20.6925
1386289530853,20.7320
1386289590853,20.7441
1386289650853,20.7354
1386289710853,20.6975
1386289770853,20.6336
1386289830853,20.7276
1386289890853,20.6778
1386289950853,20.6846
1386290010853,20.7043
1386290070853,20.6499
1386290130853,20.7388
1386290190853,20.6641
1386290250853,20.7572
1386290310853,20.6707
1386290370853,20.7892
1386290430853,20.7318
1386290490853,20.8023
1386290550853,20.7921
1386290610853,20.9066
1386290670853,20.8344
1386290730853,20.8321
1386290790853,20.7676
1386290850853,20.7958
1386290910853,20.7746
1386290970853,20.7632
1386291030853,20.8120
1386291090853,20.7901
1386291150853,20.7463
1386291210853,20.7669
1386291270853,20.7169
1386291330853,20.8042
1386291390853,20.9075
1386291450853,20.9006
1386291510853,20.8849
1386291570853,20.8971
1386291630863,20.8696
1386291690863,20.8052
1386291750863,20.7863
1386291810863,20.8361
1386291870863,20.7127
1386291930863,20.7727
1386291990863,20.7319
1386292050863,20.7128
1386292110863,20.7217
1386292170863,20.7916
1386292230863,20.6978
1386292290863,20.7475
1386292350863,20.7701
1386292410863,20.7638
1386292470863,20.7310
1386292530863,20.7699
1386292590863,20.8141
1386292650863,20.8632
1386292710863,20.8100
1386292770864,20.7962
1386292830864,20.8416
1386292890863,20.8146
1386292950863,20.7709
1386293010863,20.7342
1386293070863,20.8075
1386293130863,20.7126
1386293190863,20.7434
1386293250863,20.7536
1386293310863,20.8460
1386293370863,20.8702
1386293430863,20.7920
1386293490863,20.8015
1386293550863,20.8354
1386293610863,20.8084
1386293670863,20.6887
1386293730863,20.7071
1386293790863,20.7590
1386293850863,20.7614
1386293910863,20.7627
1386293970863,20.7431
1386294030863,20.6923
1386294090864,20.7521
1386294150864,20.7757
1386294210863,20.7017
1386294270863,20.7311
1386294330863,20.6760
1386294390863,20.6865
1386294450863,20.6848
1386294510863,20.7722
1386294570863,20.7876
1386294630863,20.8422
1386294690863,20.8634
1386294750863,20.7864
1386294810863,20.7248
1386294870863,20.7460
1386294930863,20.7144
1386294990863,20.6966
1386295050863,20.6513
1386295110863,20.6966
1386295170863,20.7357
1386295230873,20.6001
1386295290873,20.6136
1386295350873,20.6798
1386295410873,20.7191
1386295470873,20.6654
1386295530873,20.6628
1386295590873,20.7378
1386295650873,20.6656
1386295710873,20.7065
1386295770873,20.7421
1386295830873,20.7042
1386295890873,20.7724
1386295950873,20.7697
1386296010873,20.7267
1386296070873,20.7295
1386296130873,20.7468
1386296190873,20.6829
1386296250873,20.7172
1386296310873,20.6859
1386296370873,20.6486
1386296430873,20.6967
1386296490873,20.5679
1386296550873,20.5929
1386296610873,20.6868
1386296670873,20.6091
1386296730873,20.5656
1386296790873,20.5709
1386296850873,20.6429
1386296910873,20.6334
1386296970873,20.6734
1386297030873,20.6223
1386297090873,20.6730
1386297150873,20.6645
1386297210873,20.6624
1386297270873,20.7213
1386297330873,20.7131
1386297390873,20.7287
1386297450873,20.7441
1386297510873,20.6732
1386297570873,20.6986
1386297630873,20.6697
1386297690873,20.6220
1386297750873,20.6661
1386297810873,20.5692
1386297870873,20.5888
1386297930873,20.5811
1386297990873,20.5929
1386298050873,20.5949
1386298110873,20.6496
1386298170873,20.6045
1386298230873,20.5880
1386298290873,20.5778
1386298350873,20.5793
1386298410873,20.5816
1386298470873,20.5481
1386298530873,20.5668
1386298590873,20.5600
1386298650873,20.6144
1386298710873,20.5656
1386298770873,20.5519
1386298830883,20.5738
1386298890883,20.5377
1386298950883,20.5618
1386299010883,20.5157
1386299070883,20.5744
1386299130883,20.5463
1386299190883,20.5448
1386299250883,20.5376
1386299310883,20.5464
1386299370883,20.5397
1386299430883,20.5558
1386299490883,20.5614
1386299550883,20.5836
1386299610883,20.6056
1386299670883,20.5741
1386299730883,20.6582
1386299790883,20.6249
1386299850883,20.5953
1386299910883,20.6904
1386299970883,20.6493
1386300030883,20.6836
1386300090883,20.7120
1386300150883,20.6259
1386300210883,20.6551
1386300270883,20.6016
1386300330883,20.5820
1386300390883,20.6140
1386300450883,20.6880
1386300510883,20.6872
1386300570883,20.7270
1386300630883,20.7435
1386300690883,20.7007
1386300750883,20.7063
1386300810883,20.6233
1386300870883,20.6006
1386300930883,20.6671
1386300990883,20.6587
1386301050883,20.6169
1386301110883,20.7302
1386301170883,21.0437
1386301230883,20.5680
1386301290883,20.5964
1386301350883,20.5845
1386301410883,20.5500
1386301470883,20.5593
1386301530883,20.5664
1386301590883,20.6430
1386301650883,20.6282
1386301710883,20.5670
1386301770883,20.6748
1386301830883,20.5939
1386301890883,20.6314
1386301950883,20.6351
1386302010883,20.6947
1386302070883,20.7139
1386302130883,20.6401
1386302190883,20.6440
1386302250883,20.5704
1386302310883,20.5199
1386302370883,20.5926
1386302430893,20.5921
1386302490893,20.5973
1386302550893,20.5990
1386302610893,20.6056
1386302670893,20.6247
1386302730893,20.5511
1386302790893,20.5362
1386302850893,20.4504
1386302910893,20.4870
1386302970893,20.5246
1386303030893,20.5563
1386303090893,20.5021
1386303150893,20.5240
1386303210893,20.5145
1386303270893,20.5721
1386303330893,20.6142
1386303390893,20.6071
1386303450893,20.5985
1386303510893,20.5038
1386303570893,20.5610
1386303630893,20.6013
1386303690893,20.5687
1386303750893,20.5540
1386303810893,20.5688
1386303870893,20.5512
1386303930893,20.5524
1386303990893,20.5803
1386304050893,20.6251
1386304110893,20.6931
1386304170893,20.6472
1386304230893,20.6355
1386304290893,20.6091
1386304350893,20.6490
1386304410893,20.5993
1386304470893,20.6531
1386304530893,20.6460
1386304590893,20.5982
1386304650893,20.5977
1386304710893,20.6154
1386304770893,20.6009
1386304830893,20.5487
1386304890893,20.5677
1386304950893,20.5417
1386305010893,20.5925
1386305070893,20.5559
1386305130893,20.5511
1386305190893,20.6292
1386305250893,20.6004
1386305310893,20.6329
1386305370893,20.5893
1386305430893,20.5359
1386305490893,20.5686
1386305550893,20.5459
1386305610893,20.6114
1386305670893,20.2343
1386305730893,20.5277
1386305790893,20.5589
1386305850893,20.5653
1386305910893,20.5760
1386305970893,20.5557
1386306030903,20.5290
1386306090903,20.5720
1386306150903,20.6223
1386306210903,20.6349
1386306270903,20.6805
1386306330903,20.6089
1386306390903,20.6019
1386306450903,20.5727
1386306510903,20.6263
1386306570903,20.5644
1386306630903,20.6212
1386306690903,20.6296
1386306750903,20.6329
1386306810903,20.6242
1386306870903,20.6026
1386306930903,20.5867
1386306990903,20.6628
1386307050903,20.5999
1386307110903,20.6116
1386307170903,20.6137
1386307230903,20.5863
1386307290903,20.6451
1386307350903,20.6232
1386307410903,20.5346
1386307470903,20.5381
1386307530903,20.5227
1386307590903,20.4972
1386307650903,20.4526
1386307710903,20.5134
1386307770903,20.5294
1386307830903,20.4991
1386307890903,20.4770
1386307950903,20.4431
1386308010903,20.4577
1386308070903,20.5061
1386308130903,20.4940
1386308190903,20.4207
1386308250903,20.5085
1386308310903,20.5065
1386308370903,20.4826
1386308430903,20.5026
1386308490903,20.4043
1386308550903,20.4417
1386308610903,20.4573
1386308670903,20.4843
1386308730903,20.4749
1386308790903,20.4499
1386308850903,20.4396
1386308910903,20.5816
1386308970903,20.5402
1386309030903,20.5099
1386309090903,20.5229
1386309150903,20.5580
1386309210903,20.5741
1386309270903,20.5070
1386309330903,20.5223
1386309390903,20.6031
1386309450903,20.5737
1386309510903,20.5138
1386309570903,20.4713
1386309630913,20.5078
1386309690913,20.4948
1386309750913,20.5060
1386309810913,20.4762
1386309870913,20.4474
1386309930913,20.5819
1386309990913,20.4963
1386310050913,20.4600
1386310110913,20.5376
1386310170913,20.4853
1386310230913,20.5183
1386310290913,20.5059
1386310350913,20.4664
1386310410913,20.4864
1386310470913,20.4680
1386310530913,20.5083
1386310590913,20.5191
1386310650913,20.4724
1386310710913,20.4330
1386310770913,20.5086
1386310830913,20.4744
1386310890913,20.4767
1386310950913,20.5059
1386311010913,20.4923
1386311070913,20.5064
1386311130913,20.4591
1386311190913,20.5900
1386311250913,20.5335
1386311310913,20.5008
1386311370913,20.4948
1386311430913,20.5250
1386311490913,20.4633
1386311550913,20.4922
1386311610913,20.5650
1386311670913,20.6322
1386311730913,20.6583
1386311790913,20.5865
1386311850913,20.5955
1386311910913,20.5237
1386311970913,20.5768
1386312030913,20.5630
1386312090913,20.6142
1386312150913,20.5712
1386312210913,20.5528
1386312270913,20.6100
1386312330913,20.6588
1386312390913,20.7012
1386312450913,20.7706
1386312510913,20.8111
1386312570913,20.8224
1386312630913,20.7827
1386312690913,20.5857
1386312750913,20.6931
1386312810913,20.6465
1386312870913,20.5723
1386312930913,20.6114
1386312990913,20.5675
1386313050913,20.6220
1386313110913,20.5624
1386313170913,20.5604
1386313230924,20.5623
1386313290924,20.5350
1386313350924,20.5444
1386313410924,20.4579
1386313470924,20.5260
1386313530924,20.4463
1386313590924,20.4537
1386313650924,20.4952
1386313710924,20.5613
1386313770924,20.4941
1386313830924,20.5166
1386313890924,20.4708
1386313950924,20.5358
1386314010924,20.5220
1386314070924,20.4540
1386314130924,20.4730
1386314190924,20.4843
1386314250924,20.3460
1386314310924,20.4025
1386314370924,20.4721
1386314430924,20.4631
1386314490924,20.4901
1386314550924,20.5095
1386314610924,20.4737
1386314670924,20.4473
1386314730924,20.4649
1386314790924,20.4428
1386314850924,20.4647
1386314910924,20.4465
1386314970924,20.4126
1386315030924,20.5314
1386315090924,20.4790
1386315150924,20.4470
1386315210924,20.4696
1386315270924,20.5419
1386315330924,20.5203
1386315390924,20.6925
1386315450924,20.6896
1386315510924,20.5882
1386315570924,20.6022
1386315630924,20.5295
1386315690924,20.6193
1386315750924,20.5184
1386315810924,20.5193
1386315870924,20.5159
1386315930924,20.4901
1386315990924,20.4753
1386316050924,20.4867
1386316110924,20.5505
1386316170924,20.4792
1386316230924,20.4808
1386316290924,20.5366
1386316350924,20.5058
1386316410924,20.5291
1386316470924,20.6084
1386316530924,20.4969
1386316590924,20.5630
1386316650924,20.6126
1386316710924,20.6366
1386316770924,20.6163
1386316830935,20.6123
1386316890935,20.6536
1386316950935,20.6416
1386317010935,20.5997
1386317070935,20.6657
1386317130935,20.6613
1386317190935,20.5327
1386317250935,20.6200
1386317310935,20.5423
1386317370935,20.5010
1386317430935,20.6016
1386317490935,20.6058
1386317550935,20.6085
1386317610935,20.5700
1386317670935,20.5948
1386317730935,20.6296
1386317790935,20.5634
1386317850935,20.6074
1386317910935,20.6413
1386317970935,20.5830
1386318030935,20.4901
1386318090935,20.5178
1386318150935,20.5493
1386318210935,20.4783
1386318270935,20.5463
1386318330935,20.6314
1386318390935,20.5964
1386318450935,20.6351
1386318510935,20.6520
1386318570935,20.6590
1386318630935,20.5821
1386318690935,20.6128
1386318750935,20.6011
1386318810935,20.6228
1386318870935,20.5882
1386318930935,20.6098
1386318990935,20.5878
1386319050935,20.4627
1386319110935,20.6202
1386319170935,20.6956
1386319230935,20.6494
1386319290935,20.6201
1386319350935,20.6095
1386319410935,20.6465
1386319470935,20.6297
1386319530935,20.6572
1386319590935,20.6119
1386319650935,20.6633
1386319710935,20.5932
1386319770935,20.5897
1386319830935,20.5995
1386319890935,20.5826
1386319950935,20.6011
1386320010935,20.6091
1386320070935,20.5859
1386320130935,20.6601
1386320190935,20.5515
1386320250935,20.5803
1386320310935,20.5544
1386320370935,20.5794
1386320430946,20.6426
1386320490946,20.5634
1386320550946,20.5003
1386320610946,20.5524
1386320670946,20.4814
1386320730946,20.5088
1386320790946,20.5178
1386320850946,20.5442
1386320910946,20.5034
1386320970946,20.5767
1386321030946,20.6363
1386321090946,20.5850
1386321150946,20.6127
1386321210946,20.5549
1386321270946,20.5588
1386321330946,20.5711
1386321390946,20.7190
1386321450946,20.6582
1386321510946,20.6240
1386321570946,20.6753
1386321630946,20.6555
1386321690946,20.6169
1386321750946,20.6263
1386321810946,20.5688
1386321870946,20.6594
1386321930946,20.6133
1386321990946,20.7125
1386322050946,20.6617
1386322110946,20.6958
1386322170946,20.7218
1386322230946,20.6418
1386322290946,20.6692
1386322350946,20.5763
1386322410946,20.6027
1386322470946,20.6329
1386322530946,20.6451
1386322590946,20.6480
1386322650946,20.6688
1386322710946,20.7561
1386322770946,20.6970
1386322830946,20.7177
1386322890946,20.7020
1386322950946,20.6203
1386323010946,20.7203
1386323070946,20.7033
1386323130946,20.7176
1386323190946,20.7331
1386323250946,20.8409
1386323310946,20.8016
1386323370946,20.9362
1386323430946,20.9837
1386323490946,21.0016
1386323550946,20.9414
1386323610946,20.9539
1386323670946,20.9546
1386323730946,20.9165
1386323790946,20.8847
1386323850946,20.8525
1386323910946,20.8684
1386323970946,20.7810
1386324030957,20.8626
1386324090957,20.8008
1386324150957,20.8012
1386324210957,20.7191
1386324270957,20.8191
1386324330957,20.7713
1386324390957,20.7028
1386324450957,20.7494
1386324510957,20.7751
1386324570957,20.7024
1386324630957,20.7581
1386324690957,20.6888
1386324750957,20.6464
1386324810957,20.6469
1386324870957,20.6709
1386324930957,20.6391
1386324990957,20.7197
1386325050957,20.6201
1386325110957,20.7036
1386325170957,20.6096
1386325230957,20.6384
1386325290957,20.6499
1386325350957,20.5972
1386325410957,20.6647
1386325470957,20.6664
1386325530957,20.6094
1386325590957,20.6404
1386325650957,20.6534
1386325710957,20.6511
1386325770957,20.6107
1386325830957,20.6364
1386325890957,20.5980
1386325950957,20.5974
1386326010957,20.6202
1386326070957,20.6527
1386326130957,20.5463
1386326190957,20.5842
1386326250957,20.6268
1386326310957,20.5965
1386326370957,20.5867
1386326430957,20.6516
1386326490957,20.5952
1386326550957,20.6012
1386326610957,20.5506
1386326670957,20.5356
1386326730957,20.5401
1386326790957,20.6480
1386326850957,20.6039
1386326910957,20.5462
1386326970957,20.5385
1386327030957,20.5788
1386327090957,20.5673
1386327150957,20.5454
1386327210957,20.5471
1386327270957,20.5975
1386327330957,20.5483
1386327390957,20.6038
1386327450957,20.5770
1386327510957,20.5235
1386327570957,20.6083
1386327630968,20.5700
1386327690968,20.6567
1386327750968,20.6110
1386327810968,20.6617
1386327870968,20.6414
1386327930968,20.6601
1386327990968,20.7218
1386328050968,20.6873
1386328110968,20.7125
1386328170968,20.6568
1386328230968,20.7813
1386328290968,20.7254
1386328350968,20.7951
1386328410968,20.7740
1386328470968,20.6508
1386328530968,20.6976
1386328590968,20.6692
1386328650968,20.6482
1386328710968,20.6280
1386328770968,20.6912
1386328830968,20.7106
1386328890968,20.7302
1386328950968,20.6882
1386329010968,20.6406
1386329070968,20.6702
1386329130968,20.7031
1386329190968,20.6833
1386329250968,20.7355
1386329310968,20.7007
1386329370968,20.7498
1386329430968,20.6757
1386329490968,20.7016
1386329550968,20.6836
1386329610968,20.6759
1386329670968,20.6772
1386329730968,20.6788
1386329790968,20.7116
1386329850968,20.7221
1386329910968,20.7083
1386329970968,20.6561
1386330030968,20.6375
1386330090968,20.6693
1386330150968,20.6599
1386330210968,20.7292
1386330270968,20.7431
1386330330968,20.7546
1386330390968,20.6694
1386330450968,20.6554
1386330510968,20.6402
1386330570968,20.6290
1386330630968,20.6706
1386330690968,20.6545
1386330750968,20.6694
1386330810968,20.7420
1386330870968,20.6425
1386330930968,20.6598
1386330990968,20.6392
1386331050968,20.7148
1386331110968,20.6162
1386331170968,20.6158
1386331230980,20.6219
1386331290980,20.6631
1386331350980,20.5934
1386331410980,20.5886
1386331470980,20.6755
1386331530980,20.6417
1386331590980,20.6561
1386331650980,20.6736
1386331710980,20.7030
1386331770980,20.7078
1386331830980,20.6090
1386331890980,20.6958
1386331950980,20.7128
1386332010980,20.7229
1386332070980,20.6708
1386332130980,20.7131
1386332190980,20.6925
1386332250980,20.7013
1386332310980,20.6600
1386332370980,20.6578
1386332430980,20.5903
1386332490980,20.6298
1386332550980,20.6063
1386332610980,20.5632
1386332670980,20.6508
1386332730980,20.6371
1386332790980,20.7651
1386332850980,20.8173
1386332910980,20.6689
1386332970980,20.7882
1386333030980,20.6333
1386333090980,20.6411
1386333150980,20.7145
1386333210980,20.7129
1386333270980,20.6816
1386333330980,20.7216
1386333390980,20.6160
1386333450980,20.7146
1386333510980,20.6519
1386333570980,20.7332
1386333630980,20.7492
1386333690980,20.6773
1386333750980,20.6507
1386333810980,20.6528
1386333870980,20.6927
1386333930980,20.6670
1386333990980,20.7094
1386334050980,20.6193
1386334110980,20.6555
1386334170980,20.7531
1386334230980,20.7354
1386334290980,20.6986
1386334350980,20.7162
1386334410980,20.7077
1386334470980,20.6987
1386334530980,20.7015
1386334590980,20.7224
1386334650980,20.7185
1386334710980,20.7049
1386334770980,20.6228
1386334830992,20.6550
1386334890992,20.6708
1386334950992,20.6047
1386335010992,20.6590
1386335070992,20.6491
1386335130992,20.7044
1386335190992,20.6372
1386335250992,20.6790
1386335310992,20.7183
1386335370992,20.6689
1386335430992,20.7313
1386335490992,20.6944
1386335550992,20.7281
1386335610992,20.7285
1386335670992,20.6752
1386335730992,20.6377
1386335790992,20.6709
1386335850992,20.6865
1386335910992,20.7596
1386335970992,20.6247
1386336030992,20.6777
1386336090992,20.6902
1386336150992,20.5973
1386336210992,20.6315
1386336270992,20.6564
1386336330992,20.6888
1386336390992,20.6463
1386336450992,20.6587
1386336510992,20.6790
1386336570992,20.6480
1386336630992,20.7156
1386336690992,20.5577
1386336750992,20.6052
1386336810992,20.6416
1386336870992,20.6506
1386336930992,20.6725
1386336990992,20.6854
1386337050992,20.6987
1386337110992,20.6148
1386337170992,20.6010
1386337230992,20.5958
1386337290992,20.5542
1386337350992,20.6144
1386337410992,20.5974
1386337470992,20.5656
1386337530992,20.5472
1386337590992,20.6075
1386337650992,20.5470
1386337710992,20.5840
1386337770992,20.5758
1386337830992,20.5467
1386337890992,20.5714
1386337950992,20.5544
1386338010992,20.5575
1386338070992,20.6170
1386338130992,20.5985
1386338190992,20.5686
1386338250992,20.5775
1386338310992,20.6338
1386338370992,20.6690
1386338431003,20.4694
1386338491003,20.5369
1386338551003,20.5956
1386338611003,20.6791
1386338671003,20.5442
1386338731003,20.6147
1386338791003,20.5777
1386338851003,20.5600
1386338911003,20.5328
1386338971003,20.5534
1386339031003,20.6068
1386339091003,20.5319
1386339151003,20.6190
1386339211003,20.6234
1386339271003,20.5726
1386339331003,20.5664
1386339391003,20.5400
1386339451003,20.5687
1386339511003,20.5838
1386339571003,20.5625
1386339631003,20.5405
1386339691003,20.6239
1386339751003,20.5972
1386339811003,20.5855
1386339871003,20.5942
1386339931003,20.5113
1386339991003,20.5208
1386340051003,20.4428
1386340111003,20.5444
1386340171003,20.5141
1386340231003,20.5035
1386340291003,20.4883
1386340351003,20.5385
1386340411003,20.4640
1386340471003,20.5230
1386340531003,20.5193
1386340591003,20.5126
1386340651003,20.5005
1386340711003,20.4878
1386340771003,20.4796
1386340831003,20.5344
1386340891003,20.4847
1386340951003,20.5417
1386341011003,20.4947
1386341071003,20.5121
1386341131003,20.5094
1386341191003,20.4960
1386341251003,20.5258
1386341311003,20.5374
1386341371003,20.4809
1386341431003,20.4908
1386341491003,20.6350
1386341551003,20.4959
1386341611003,20.5778
1386341671003,20.4689
1386341731003,20.4937
1386341791003,20.4948
1386341851003,20.4394
1386341911003,20.5608
1386341971003,20.4831
1386342031015,20.5395
1386342091015,20.4801
1386342151015,20.5153
1386342211015,20.4716
1386342271015,20.5562
1386342331015,20.5469
1386342391015,20.5218
1386342451015,20.5258
1386342511015,20.6312
1386342571015,20.6227
1386342631015,20.5813
1386342691015,20.6260
1386342751015,20.6170
1386342811015,20.6363
1386342871015,20.6883
1386342931015,20.6720
1386342991015,20.6991
1386343051015,20.7063
1386343111015,20.6866
1386343171015,20.6545
1386343231015,20.5998
1386343291015,20.6918
1386343351015,20.6643
1386343411015,20.6377
1386343471015,20.5604
1386343531015,20.7397
1386343591015,20.6757
1386343651015,20.6993
1386343711015,20.6326
1386343771015,20.6352
1386343831015,20.6524
1386343891015,20.6267
1386343951015,20.6178
1386344011015,20.5736
1386344071015,20.6124
1386344131015,20.6198
1386344191015,20.5676
1386344251015,20.5542
1386344311015,20.6234
1386344371015,20.5320
1386344431015,20.5574
1386344491015,20.6219
1386344551015,20.6413
1386344611015,20.6302
1386344671015,20.5421
1386344731015,20.5475
1386344791015,20.6865
1386344851015,20.4399
1386344911015,20.5181
1386344971015,20.5519
1386345031015,20.5125
1386345091015,20.4728
1386345151015,20.5332
1386345211015,20.5288
1386345271015,20.4385
1386345331015,20.4464
1386345391015,20.5069
1386345451015,20.4399
1386345511015,20.4440
1386345571015,20.4218
1386345631026,20.4226
1386345691026,20.4624
1386345751026,20.3992
1386345811026,20.4160
1386345871026,20.4677
1386345931026,20.4540
1386345991026,20.4424
1386346051026,20.5388
1386346111026,20.4142
1386346171026,20.3899
1386346231026,20.5178
1386346291026,20.4382
1386346351026,20.3879
1386346411026,20.4455
1386346471026,20.4688
1386346531026,20.4857
1386346591026,20.4677
1386346651026,20.4563
1386346711026,20.4175
1386346771026,20.4214
1386346831026,20.4286
1386346891026,20.4255
1386346951026,20.4291
1386347011026,20.4396
1386347071026,20.4220
1386347131026,20.4220
1386347191026,20.4542
1386347251026,20.5257
1386347311026,20.5128
1386347371026,20.4859
1386347431026,20.4854
1386347491026,20.4497
1386347551026,20.7099
1386347611026,20.5017
1386347671026,20.4353
1386347731026,20.6144
1386347791026,20.4901
1386347851026,20.5370
1386347911026,20.4883
1386347971026,20.5662
1386348031026,20.5148
1386348091026,20.4743
1386348151026,20.5342
1386348211026,20.5140
1386348271026,20.5149
1386348331026,20.5510
1386348391026,20.5754
1386348451026,20.5717
1386348511026,20.5160
1386348571026,20.5250
1386348631026,20.5110
1386348691026,20.5620
1386348751026,20.4559
1386348811026,20.4981
1386348871026,20.4911
1386348931026,20.5175
1386348991026,20.4486
1386349051026,20.5260
1386349111026,20.4408
1386349171026,20.4831
1386349231037,20.5462
1386349291037,20.4726
1386349351037,20.4426
1386349411037,20.4449
1386349471037,20.4596
1386349531037,20.4748
1386349591037,20.5132
1386349651037,20.5218
1386349711037,20.4656
1386349771037,20.4964
1386349831037,20.4570
1386349891037,20.4304
1386349951037,20.5286
1386350011037,20.4424
1386350071037,20.4355
1386350131037,20.4373
1386350191037,20.4399
1386350251037,20.4222
1386350311037,20.4377
1386350371037,20.4099
1386350431037,20.4138
1386350491037,20.3835
1386350551037,20.3494
1386350611037,20.4661
1386350671037,20.4522
1386350731037,20.3695
1386350791037,20.4304
1386350851037,20.4327
1386350911037,20.4546
1386350971037,20.5158
1386351031037,20.4447
1386351091037,20.4251
1386351151037,20.4589
1386351211037,20.4750
1386351271037,20.4089
1386351331037,20.3767
1386351391037,20.3551
1386351451037,20.3505
1386351511037,20.4218
1386351571037,20.4631
1386351631037,20.4050
1386351691037,20.4267
1386351751037,20.4417
1386351811037,20.3865
1386351871037,20.4507
1386351931037,20.4382
1386351991037,20.3664
1386352051037,20.4136
1386352111037,20.4873
1386352171037,20.4609
1386352231037,20.3687
1386352291037,20.4406
1386352351037,20.4570
1386352411037,20.4148
1386352471037,20.4994
1386352531037,20.4466
1386352591037,20.4637
1386352651037,20.5027
1386352711037,20.4420
1386352771037,20.4550
1386352831049,20.4607
1386352891049,20.4603
1386352951049,20.5271
1386353011049,20.4449
1386353071049,20.4698
1386353131049,20.5340
1386353191049,20.4515
1386353251049,20.4534
1386353311049,20.4994
1386353371049,20.5517